Overview Statistics Trail Chart Weather Telemetry Raw packets
 

This is the latest recevied weather packets stored in our database for station/object DL8BGD. If no packets are shown the sender has not sent any weather packets the latest 10 day(s).

<< 1 2 3 4 5 >>
Time Temp. Humidity Pressure Rain* Wind** Luminosity Snow
1788619060 18.33° C 74% 1027.7 hPa 0 mm - - -
1788618460 18.33° C 74% 1027.6 hPa 0 mm - - -
1788617859 18.89° C 71% 1027.6 hPa 0 mm - - -
1788617260 18.89° C 72% 1027.7 hPa 0 mm - - -
1788616659 18.33° C 71% 1027.6 hPa 0 mm - - -
1788616058 18.89° C 70% 1027.5 hPa 0 mm - - -
1788615458 18.89° C 69% 1027.5 hPa 0 mm - - -
1788614859 19.44° C 67% 1027.4 hPa 0 mm - - -
1788614257 19.44° C 66% 1027.4 hPa 0 mm - - -
1788613056 20° C 64% 1027.4 hPa 0 mm - - -
1788612456 20.56° C 61% 1027.2 hPa 0 mm - - -
1788611856 20.56° C 60% 1027.2 hPa 0 mm - - -
1788611256 20.56° C 61% 1027.1 hPa 0 mm - - -
1788610656 20° C 60% 1027 hPa 0 mm - - -
1788610055 19.44° C 59% 1027 hPa 0 mm - - -
1788609454 19.44° C 61% 1027 hPa 0 mm - - -
1788608854 19.44° C 59% 1027.1 hPa 0 mm - - -
1788608255 19.44° C 61% 1027.2 hPa 0 mm - - -
1788607661 18.89° C 62% 1027.2 hPa 0 mm - - -
1788607053 18.89° C 59% 1027.2 hPa 0 mm - - -
1788606452 19.44° C 60% 1027.2 hPa 0 mm - - -
1788605852 18.89° C 60% 1027 hPa 0 mm - - -
1788605252 18.89° C 60% 1026.9 hPa 0 mm - - -
1788604051 19.44° C 58% 1026.8 hPa 0 mm - - -
1788603451 18.33° C 62% 1026.9 hPa 0 mm - - -

* Rain since midnight (hover to see other rain measurements)
** Current wind speed in m/s (hover to see current wind gust speed)